Погода в Бобровниково

Россия / Вологодская область     60°49′17″N   46°25′26″E
темп.,
°C
ветер,
м/с
пор.,
м/с
влажн.,
%
обл.,
%
осадки,
мм/ч
давл.,
гПа
погр.,
м
17 сентября, пт
пт1700:00+4сз388199 0.0 1014448
03:00+3сз3891100 0.0 1015284
06:00+3сз3992100 0.0 1015446
09:00+4сз3795100 0.1 1015850
12:00+4сз3798100 1.1 1016696
15:00+5с3697100 1.7 1016623
18:00+5с389499 0.3 1017562
21:00+3с389684 0.4 1019330
18 сентября, сб
сб1800:00+1ссз389791 0.0 1021231
03:00+2ссз3109481 0.0 1022358
06:00+1ссз3109780 0.0 1022382
09:00+4с498127 0.0 10231017
12:00+5ссз4862100 0.1 10241444
15:00+6ссз4858100 0.1 10241635
18:00+5ссз4965100 0.0 1024765
21:00+3сз397494 0.0 1025513
19 сентября, вс
вс1900:00+2сз3108766 0.0 1025392
03:00+1ссз4109040 0.0 1026489
06:00−1ссз399699 0.0 1027375
09:00+3с4768100 0.0 10271065
12:00+4с4760100 0.0 10281321
15:00+5с4762100 0.0 10291327
18:00+4с3770100 0.0 1029558
21:00+3с2774100 0.0 1030364
20 сентября, пн
пн2000:00+3с2675100 0.0 1031228
03:00+3ссв2669100 0.0 1031219
06:00+3с2572100 0.0 1032184
09:00+5св345999 0.0 10331203
12:00+5всв2459100 0.0 10331221
15:00+6всв235429 0.0 10321159
18:00+2св22765 0.0 103211
21:000в22865 0.0 103319
21 сентября, вт
вт2100:00−1в22900 0.0 103317
03:00−1в22931 0.0 103322
06:00−1в22935 0.0 103243
09:00+5вюв23615 0.0 1032425
12:00+9вюв23470 0.0 1031932
15:00+10вюв23460 0.0 10291003
18:00+4вюв22755 0.0 102917
21:00+2вюв22840 0.0 102932